TimeCDT,TemperatureF,Dew PointF,Humidity,Sea Level PressureIn,VisibilityMPH,Wind Direction,Wind SpeedMPH,Gust SpeedMPH,PrecipitationIn,Events,Conditions,WindDirDegrees,DateUTC
12:15 AM,42.8,42.8,100,29.79,5.0,Calm,Calm,-,N/A,,Overcast,0,2012-10-14 05:15:00
12:35 AM,42.8,42.8,100,29.76,3.0,Calm,Calm,-,N/A,,Overcast,0,2012-10-14 05:35:00
12:55 AM,42.8,42.8,100,29.76,1.0,NE,3.5,-,N/A,,Overcast,50,2012-10-14 05:55:00
1:15 AM,42.8,42.8,100,29.75,1.5,ENE,5.8,-,N/A,,Overcast,60,2012-10-14 06:15:00
1:35 AM,42.8,42.8,100,29.75,10.0,ENE,5.8,-,N/A,,Overcast,60,2012-10-14 06:35:00
1:55 AM,42.8,42.8,100,29.75,10.0,NE,3.5,-,N/A,,Overcast,50,2012-10-14 06:55:00
2:35 AM,42.8,42.8,100,29.76,10.0,Calm,Calm,-,N/A,,Overcast,0,2012-10-14 07:35:00
2:55 AM,42.8,42.8,100,29.75,10.0,ENE,4.6,-,N/A,,Overcast,70,2012-10-14 07:55:00
3:15 AM,42.8,42.8,100,29.75,10.0,ENE,3.5,-,N/A,,Overcast,60,2012-10-14 08:15:00
3:35 AM,42.8,42.8,100,29.75,10.0,ENE,4.6,-,N/A,,Overcast,60,2012-10-14 08:35:00
3:55 AM,42.8,42.8,100,29.75,10.0,NE,5.8,-,N/A,,Overcast,40,2012-10-14 08:55:00
4:15 AM,42.8,42.8,100,29.74,10.0,NE,5.8,-,N/A,,Overcast,50,2012-10-14 09:15:00
4:35 AM,42.8,42.8,100,29.74,10.0,NE,6.9,-,N/A,,Overcast,50,2012-10-14 09:35:00
4:55 AM,42.8,42.8,100,29.74,10.0,ENE,6.9,-,N/A,,Overcast,60,2012-10-14 09:55:00
5:15 AM,42.8,41.0,93,29.74,10.0,ENE,8.1,-,N/A,,Overcast,60,2012-10-14 10:15:00
5:35 AM,42.8,42.8,100,29.74,10.0,NE,4.6,-,N/A,,Overcast,40,2012-10-14 10:35:00
5:55 AM,41.0,41.0,100,29.73,10.0,NE,5.8,-,N/A,,Overcast,50,2012-10-14 10:55:00
6:15 AM,41.0,41.0,100,29.73,10.0,NE,8.1,-,N/A,,Overcast,50,2012-10-14 11:15:00
6:35 AM,41.0,41.0,100,29.72,10.0,NE,9.2,-,N/A,,Overcast,40,2012-10-14 11:35:00
6:55 AM,41.0,41.0,100,29.70,10.0,NE,11.5,-,N/A,,Overcast,40,2012-10-14 11:55:00
7:15 AM,41.0,41.0,100,29.70,10.0,NE,12.7,17.3,N/A,,Overcast,40,2012-10-14 12:15:00
7:35 AM,41.0,41.0,100,29.71,10.0,NE,11.5,-,N/A,Rain,Light Rain,50,2012-10-14 12:35:00
7:55 AM,41.0,41.0,100,29.71,10.0,NE,12.7,16.1,N/A,,Overcast,50,2012-10-14 12:55:00
8:15 AM,41.0,41.0,100,29.71,7.0,NNE,12.7,-,N/A,,Overcast,30,2012-10-14 13:15:00
8:35 AM,39.2,39.2,100,29.70,5.0,NE,11.5,-,N/A,,Overcast,40,2012-10-14 13:35:00
8:55 AM,39.2,39.2,100,29.70,7.0,NE,10.4,17.3,N/A,,Overcast,40,2012-10-14 13:55:00
9:15 AM,39.2,39.2,100,29.71,4.0,NE,10.4,-,N/A,,Overcast,40,2012-10-14 14:15:00
9:35 AM,41.0,41.0,100,29.71,4.0,NNE,6.9,-,N/A,,Overcast,20,2012-10-14 14:35:00
9:55 AM,41.0,41.0,100,29.70,2.5,NNE,9.2,-,N/A,,Overcast,20,2012-10-14 14:55:00
10:15 AM,41.0,41.0,100,29.70,2.5,NNE,6.9,-,N/A,,Overcast,20,2012-10-14 15:15:00
10:35 AM,41.0,41.0,100,29.69,4.0,NNE,9.2,-,N/A,,Overcast,20,2012-10-14 15:35:00
10:55 AM,41.0,41.0,100,29.67,2.5,North,8.1,-,N/A,,Overcast,10,2012-10-14 15:55:00
11:15 AM,41.0,41.0,100,29.67,2.5,North,11.5,18.4,N/A,,Overcast,10,2012-10-14 16:15:00
11:35 AM,41.0,41.0,100,29.65,3.0,North,10.4,-,N/A,,Overcast,10,2012-10-14 16:35:00
11:55 AM,41.0,41.0,100,29.65,3.0,NNE,10.4,-,N/A,,Overcast,20,2012-10-14 16:55:00
12:15 PM,41.0,41.0,100,29.64,3.0,North,6.9,19.6,N/A,,Overcast,10,2012-10-14 17:15:00
12:35 PM,41.0,41.0,100,29.63,4.0,North,10.4,18.4,N/A,,Overcast,360,2012-10-14 17:35:00
12:55 PM,42.8,42.8,100,29.62,5.0,North,10.4,17.3,N/A,,Overcast,360,2012-10-14 17:55:00
1:15 PM,42.8,42.8,100,29.62,5.0,North,9.2,19.6,N/A,,Overcast,360,2012-10-14 18:15:00
1:35 PM,42.8,42.8,100,29.61,7.0,North,10.4,19.6,N/A,,Overcast,360,2012-10-14 18:35:00
1:55 PM,42.8,42.8,100,29.61,3.0,North,12.7,17.3,N/A,,Overcast,350,2012-10-14 18:55:00
2:15 PM,42.8,42.8,100,29.60,2.5,North,12.7,18.4,N/A,,Drizzle,350,2012-10-14 19:15:00
2:35 PM,42.8,42.8,100,29.61,4.0,North,10.4,-,N/A,,Overcast,350,2012-10-14 19:35:00
2:55 PM,42.8,42.8,100,29.61,4.0,North,10.4,20.7,N/A,,Overcast,360,2012-10-14 19:55:00
3:15 PM,42.8,42.8,100,29.61,4.0,North,9.2,-,N/A,,Overcast,360,2012-10-14 20:15:00
3:35 PM,42.8,42.8,100,29.61,2.5,North,12.7,16.1,N/A,Rain,Light Rain,350,2012-10-14 20:35:00
3:55 PM,44.6,42.8,93,29.61,7.0,North,8.1,16.1,N/A,Rain,Light Rain,360,2012-10-14 20:55:00
4:15 PM,44.6,42.8,93,29.62,7.0,North,10.4,-,0.01,Rain,Rain,10,2012-10-14 21:15:00
4:35 PM,44.6,42.8,93,29.63,10.0,North,10.4,-,0.01,Rain,Light Rain,350,2012-10-14 21:35:00
4:55 PM,42.8,42.8,100,29.64,7.0,North,12.7,19.6,0.01,Rain,Light Rain,360,2012-10-14 21:55:00
5:15 PM,42.8,42.8,100,29.64,4.0,North,13.8,-,N/A,,Drizzle,350,2012-10-14 22:15:00
5:35 PM,42.8,42.8,100,29.65,2.5,North,11.5,17.3,N/A,,Overcast,350,2012-10-14 22:35:00
5:55 PM,42.8,42.8,100,29.65,7.0,North,11.5,18.4,N/A,,Overcast,350,2012-10-14 22:55:00
6:15 PM,41.0,41.0,100,29.66,5.0,NNW,15.0,20.7,N/A,,Overcast,340,2012-10-14 23:15:00
6:35 PM,41.0,41.0,100,29.67,3.0,North,11.5,24.2,N/A,,Heavy Drizzle,350,2012-10-14 23:35:00
6:55 PM,41.0,41.0,100,29.68,2.5,NNW,11.5,17.3,N/A,,Unknown,340,2012-10-14 23:55:00
7:15 PM,41.0,41.0,100,29.69,4.0,North,12.7,20.7,N/A,,Overcast,350,2012-10-15 00:15:00
7:35 PM,41.0,41.0,100,29.69,10.0,North,9.2,19.6,N/A,,Overcast,350,2012-10-15 00:35:00
7:55 PM,41.0,39.2,93,29.70,7.0,North,13.8,21.9,N/A,,Overcast,350,2012-10-15 00:55:00
8:15 PM,39.2,39.2,100,29.71,3.0,North,10.4,-,N/A,,Unknown,350,2012-10-15 01:15:00
8:35 PM,39.2,39.2,100,29.71,4.0,North,11.5,17.3,N/A,,Overcast,350,2012-10-15 01:35:00
8:55 PM,39.2,39.2,100,29.72,5.0,North,15.0,18.4,N/A,,Overcast,350,2012-10-15 01:55:00
9:15 PM,39.2,37.4,93,29.72,5.0,North,11.5,20.7,N/A,,Overcast,350,2012-10-15 02:15:00
9:35 PM,37.4,37.4,100,29.73,4.0,NNW,12.7,24.2,N/A,,Drizzle,340,2012-10-15 02:35:00
9:55 PM,37.4,37.4,100,29.73,4.0,NNW,13.8,19.6,N/A,,Drizzle,340,2012-10-15 02:55:00
10:15 PM,37.4,37.4,100,29.73,7.0,North,16.1,23.0,N/A,,Light Drizzle,350,2012-10-15 03:15:00
10:35 PM,37.4,37.4,100,29.73,7.0,North,17.3,25.3,N/A,,Overcast,350,2012-10-15 03:35:00
10:55 PM,37.4,37.4,100,29.74,10.0,North,13.8,23.0,N/A,,Overcast,350,2012-10-15 03:55:00
11:15 PM,37.4,37.4,100,29.74,10.0,North,12.7,16.1,N/A,,Overcast,350,2012-10-15 04:15:00
11:35 PM,37.4,37.4,100,29.74,10.0,North,11.5,-,N/A,,Overcast,350,2012-10-15 04:35:00
11:55 PM,37.4,37.4,100,29.74,7.0,North,13.8,-,N/A,,Overcast,350,2012-10-15 04:55:00